CAPE
1171 1412 1156 1228 552 862 700 760 1704 2170 2330 2870 3049 2860 2344 1755 935 140 39 0 0 0
1229 1411 916 895 1422 1197 1363 1022 1747 1938 2339 2729 2934 2897 2634 2111 1557 588 255 23 0 0
1110 1484 1268 1322 1515 1141 1426 1704 1372 1995 2185 2501 2719 2744 2613 2256 1969 1256 800 331 85 0
966 1143 1403 1226 1465 1491 1634 1989 1961 2127 2191 2322 2508 2712 2514 2461 2255 1822 1536 783 360 86
1124 1009 988 1045 1068 1302 1522 1688 1861 1812 2115 2261 2359 2475 2473 2185 1927 2140 1933 1436 862 406
1290 1251 1195 1165 1042 1091 1281 1507 1510 1611 1777 1975 2053 2138 2214 2149 1967 2079 2140 1911 1394 1019
1202 1226 1262 1244 1398 1454 1500 1520 1446 1454 1609 1805 1801 1803 1925 1924 2019 2020 2140 2178 1784 1391
1407 1414 1491 1556 1602 1739 1765 1636 1444 1462 1505 1638 1700 1651 1703 1815 1760 1905 2040 2149 1982 1592
1791 1693 1804 1909 1916 1981 1925 1938 1804 1560 1345 1305 1339 982 1042 1145 1132 1384 1742 1999 2068 1977
1834 1857 1950 1905 1876 1932 1968 2010 1966 1895 1725 1437 1198 854 588 635 824 797 1044 1628 1999 2019
1839 1952 2050 2045 2016 2024 1878 1924 1903 1878 1928 1756 1490 1047 610 309 692 1118 1340 1446 1768 2171
1829 1868 2018 2053 2116 2048 1898 1892 1870 1919 1989 2022 1994 1439 1041 567 989 1193 1453 1795 2191 2325
1940 1981 2046 2024 2203 2221 1953 1865 1691 1798 2006 2017 2141 1917 1223 694 1231 1291 1541 1856 2065 2096
1831 2023 2070 2136 2167 2063 1944 1720 1964 1893 2137 2155 2193 2287 1396 974 1293 1335 1418 1560 1567 1636
CIN
-93 -61 -79 -72 -80 -53 -56 -67 -50 -31 -18 -5 -2 -6 -28 -91 -215 -409 -425 0 0 0
-110 -85 -108 -96 -73 -65 -50 -61 -55 -49 -21 -9 -2 -5 -6 -31 -116 -286 -378 -457 0 0
-138 -111 -110 -94 -87 -76 -59 -51 -66 -40 -32 -14 -6 -9 -8 -20 -54 -166 -235 -330 -458 0
-148 -145 -128 -146 -118 -96 -67 -52 -55 -38 -33 -17 -12 -12 -15 -7 -16 -79 -124 -259 -366 -452
-130 -146 -165 -185 -181 -143 -110 -91 -85 -80 -59 -34 -24 -27 -25 -40 -52 -48 -71 -150 -258 -364
-99 -111 -140 -162 -185 -193 -158 -139 -135 -126 -118 -93 -68 -66 -70 -71 -76 -61 -61 -92 -167 -234
-97 -113 -124 -147 -152 -176 -175 -160 -166 -161 -158 -149 -129 -114 -121 -123 -107 -100 -76 -70 -119 -179
-104 -103 -111 -109 -135 -147 -160 -179 -183 -184 -188 -190 -173 -157 -157 -164 -168 -156 -131 -97 -127 -182
-103 -103 -103 -94 -111 -128 -153 -163 -176 -204 -220 -245 -245 -251 -269 -258 -207 -206 -185 -148 -144 -160
-130 -122 -105 -107 -109 -124 -148 -155 -174 -194 -208 -249 -282 -327 -365 -380 -321 -302 -269 -214 -170 -188
-131 -126 -120 -111 -103 -119 -135 -152 -178 -190 -201 -230 -271 -352 -420 -470 -388 -335 -309 -284 -251 -223
-180 -140 -111 -108 -112 -127 -123 -127 -158 -179 -179 -201 -233 -320 -402 -435 -370 -347 -334 -277 -264 -243
-172 -142 -118 -119 -105 -115 -133 -130 -143 -158 -165 -187 -196 -258 -393 -435 -317 -288 -285 -268 -270 -291
-211 -157 -131 -122 -114 -112 -111 -117 -115 -131 -134 -167 -174 -190 -364 -447 -323 -272 -233 -227 -199 -211
Wind_Speed
38 39 36 34 30 28 25 23 22 21 19 18 19 18 17 17 16 17 16 15 13 12
37 39 38 35 34 30 27 24 24 23 21 20 19 18 17 16 15 15 14 13 12 11
40 35 38 38 35 33 30 28 25 24 21 20 19 18 17 16 15 14 13 12 12 11
37 34 31 34 35 34 33 30 27 24 22 21 20 18 17 17 16 14 12 11 10 9
30 31 32 32 33 34 33 31 30 27 24 21 21 19 17 18 17 14 11 9 7 6
34 31 33 29 27 29 29 30 29 26 25 23 24 23 22 22 19 16 12 9 5 3
30 34 33 26 23 20 25 28 29 26 24 23 27 26 27 26 21 18 13 9 6 2
21 20 19 18 20 18 20 22 26 26 25 23 24 27 29 28 25 18 15 9 7 5
23 22 22 22 19 18 20 20 20 28 23 23 22 22 26 28 30 21 12 12 9 7
25 24 23 23 23 21 20 18 21 23 23 24 22 14 11 14 17 32 16 12 8 9
27 26 25 25 25 24 22 20 20 20 20 17 17 15 15 12 13 17 15 14 12 12
24 26 26 26 25 24 24 22 21 20 19 20 18 15 16 13 13 14 14 13 14 14
23 27 28 27 27 26 26 26 26 24 21 20 20 17 17 16 14 14 17 22 18 15
22 24 28 30 29 29 29 30 28 28 26 24 22 20 20 19 17 16 19 19 17 14
Wind_Direction
184 196 201 200 206 202 207 202 201 188 187 174 155 153 149 139 135 128 125 124 125 118
181 189 196 206 202 203 209 209 190 187 184 169 160 161 156 148 138 142 142 127 120 116
187 181 204 203 201 202 202 200 189 186 178 163 161 166 159 156 147 152 150 136 116 105
185 182 181 186 192 196 201 199 190 184 180 169 167 167 164 183 181 167 157 142 118 102
181 182 184 186 188 193 196 197 198 193 188 179 181 178 175 191 195 182 172 159 139 117
187 186 188 186 185 187 188 192 193 191 192 190 194 196 200 212 211 202 195 184 151 124
190 191 191 190 189 189 187 191 195 193 193 194 202 205 215 222 217 214 208 205 204 201
210 221 229 227 201 201 194 193 195 196 198 198 199 207 217 224 224 216 219 218 227 244
232 228 230 238 232 223 204 200 199 201 201 202 203 204 211 219 235 224 225 231 241 260
236 231 228 234 240 231 219 220 208 206 205 208 210 217 243 220 222 239 233 241 267 278
239 237 236 238 238 238 238 229 222 218 216 224 221 228 229 258 239 232 239 247 273 279
232 235 238 238 237 238 241 238 236 234 233 226 231 242 237 246 256 276 273 274 280 283
241 244 244 243 246 248 248 249 252 254 248 237 242 244 239 241 249 259 291 303 300 282
243 248 249 250 250 252 254 257 256 257 259 259 258 256 242 240 247 254 291 298 299 297